Погода в Кака

Россия / Республика Дагестан     41°28′42″N   47°38′12″E
темп.,
°C
ветер,
м/с
пор.,
м/с
влажн.,
%
обл.,
%
осадки,
мм/ч
давл.,
гПа
погр.,
м
16 мая, вс
вс1600:00+9з44778 0.0 101855
03:00+9з447515 0.0 101852
06:00+11з34684 0.0 1017124
09:00+18зюз12275 0.0 10141184
12:00+21вюв24241 0.0 10122137
15:00+20юв34290 0.0 10111685
18:00+16ююз33460 0.0 101279
21:00+9зюз56500 0.0 101580
17 мая, пн
пн1700:00+9з56475 0.0 101582
03:00+9з57474 0.0 101383
06:00+12з475318 0.0 1012103
09:00+21зсз23305 0.0 10081137
12:00+24з142382 0.0 10072748
15:00+23з24220 0.0 10072598
18:00+19зюз11425 0.0 100815
21:00+13з5759100 0.0 1014144
18 мая, вт
вт1800:00+13з4654100 0.0 101188
03:00+12з454898 0.0 101052
06:00+15зсз1153100 0.0 100947
09:00+16в435646 0.0 1010579
12:00+16всв547371 0.6 1010826
15:00+13в449395 3.1 1012401
18:00+11в2498100 1.9 1014230
21:00+10юз2295100 3.7 101686
19 мая, ср
ср1900:00+9з228193 0.7 101523
03:00+7св019237 0.7 101627
06:00+10зсз12773 0.0 1017178
09:00+14в32631 0.0 1016864
12:00+17в536132 0.3 10151250
15:00+15всв327638 1.7 1016737
18:00+13в118221 0.3 1017291
21:00+10зюз44715 0.3 101948
20 мая, чт
чт2000:00+9з45580 0.0 101857
03:00+9з45540 0.0 101857
06:00+12з34540 0.0 101868
09:00+19в213421 0.0 1015717
12:00+21в43420 0.0 10141064
15:00+21в32541 0.0 1013913
18:00+18в21732 0.1 1014135
21:00+13зюз33720 0.1 101736